START_TIME,STEP,MOV.,M15,t_acc.,M20,t_acc.
1979-07-20 09:00:28.090 ,0,0,,0,,0
1979-07-20 09:00:43.690 ,0,0,,0,,0
1979-07-20 09:01:12.490 ,0,0,,0,,0
1979-07-20 09:01:31.690 ,0,0,,0,,0
1979-07-20 09:01:55.690 ,0,0,,0,,0
1979-07-20 09:02:19.690 ,0,0,,0,,0
1979-07-20 09:02:43.690 ,0,0,0.,24.0,0.,24.0
1979-07-20 09:03:07.690 ,0,0,,0,,0
1979-07-20 09:06:53.880 ,7,0,0.,24.0,0.,24.0
1979-07-20 09:07:07.680 ,7,0,0.,24.0,0.,24.0
1979-07-20 09:07:31.680 ,3,1,0.,24.0,0.,24.0
1979-07-20 09:07:55.680 ,0,0,,0,,0
1979-07-20 09:09:17.880 ,0,0,0.,24.0,0.,24.0
1979-07-20 09:09:31.680 ,0,1,0.,24.0,0.,24.0
1979-07-20 09:09:55.680 ,4,1,0.,24.0,0.,24.0
1979-07-20 09:10:19.680 ,7,1,0.,24.0,0.,24.0
1979-07-20 09:10:43.680 ,3,1,0.,24.0,0.,24.0
1979-07-20 09:11:07.680 ,0,1,0.,24.0,0.,24.0
1979-07-20 09:11:31.680 ,4,1,0.,24.0,0.,24.0
1979-07-20 09:11:55.680 ,7,1,0.,24.0,0.,24.0
1979-07-20 09:12:19.680 ,3,1,0.,24.0,0.,24.0
1979-07-20 09:12:43.680 ,0,1,0.,24.0,0.,24.0
1979-07-20 09:13:07.680 ,4,1,0.,24.0,0.,24.0
1979-07-20 09:13:31.680 ,7,1,0.,24.0,0.,24.0
1979-07-20 09:13:55.680 ,3,1,0.,24.0,0.,24.0
1979-07-20 09:14:19.680 ,0,1,0.,24.0,0.,24.0
1979-07-20 09:14:43.680 ,4,1,0.,24.0,0.,24.0
1979-07-20 09:15:07.680 ,7,1,0.,24.0,0.,24.0
1979-07-20 09:15:31.680 ,3,1,0.,24.0,0.,24.0
1979-07-20 09:15:55.680 ,0,1,0.,24.0,0.,24.0
1979-07-20 09:16:19.680 ,4,1,0.,24.0,0.,24.0
1979-07-20 09:16:43.680 ,7,1,0.,24.0,0.,24.0
1979-07-20 09:17:07.680 ,3,1,0.,24.0,0.,24.0
1979-07-20 09:17:31.680 ,0,1,0.,24.0,0.,24.0
1979-07-20 09:17:55.680 ,0,0,0.,24.0,0.,24.0
1979-07-20 09:18:19.680 ,0,0,0.,24.0,0.,24.0
1979-07-20 09:18:43.680 ,5,1,0.,24.0,0.,24.0
1979-07-20 09:19:07.680 ,5,0,0.,24.0,0.,24.0
1979-07-20 09:19:31.680 ,4,1,0.,24.0,0.,24.0
1979-07-20 09:19:55.680 ,4,0,0.,24.0,0.,24.0
1979-07-20 09:20:19.680 ,3,1,0.,24.0,0.,24.0
1979-07-20 09:20:43.680 ,3,0,1.,24.0,0.,24.0
1979-07-20 09:21:07.680 ,2,1,0.,24.0,0.,24.0
1979-07-20 09:21:31.680 ,2,0,0.,24.0,0.,24.0
1979-07-20 09:21:55.680 ,1,1,0.,24.0,0.,24.0
1979-07-20 09:22:19.680 ,1,0,0.,24.0,0.,24.0
1979-07-20 09:22:43.680 ,0,1,0.,24.0,0.,24.0
1979-07-20 09:23:07.680 ,0,0,0.,24.0,0.,24.0
1979-07-20 09:23:31.680 ,0,1,0.,24.0,0.,24.0
1979-07-20 09:23:55.680 ,0,0,0.,24.0,0.,24.0
1979-07-20 09:24:19.680 ,1,1,0.,24.0,0.,24.0
1979-07-20 09:24:43.680 ,1,0,0.,24.0,0.,24.0
1979-07-20 09:25:07.680 ,2,1,0.,24.0,0.,24.0
1979-07-20 09:25:31.680 ,2,0,0.,24.0,0.,24.0
1979-07-20 09:25:55.680 ,3,1,0.,24.0,0.,24.0
1979-07-20 09:26:19.680 ,3,0,0.,24.0,0.,24.0
1979-07-20 09:26:43.680 ,4,1,0.,24.0,0.,24.0
1979-07-20 09:27:07.680 ,4,0,0.,24.0,0.,24.0
1979-07-20 09:27:31.680 ,5,1,0.,24.0,0.,24.0
1979-07-20 09:27:55.680 ,5,0,0.,24.0,0.,24.0
1979-07-20 09:28:19.680 ,6,1,0.,24.0,0.,24.0
1979-07-20 09:28:43.680 ,6,0,0.,24.0,0.,24.0
1979-07-20 09:29:07.680 ,7,1,0.,24.0,0.,24.0
1979-07-20 09:29:31.680 ,7,0,0.,24.0,0.,24.0
1979-07-20 09:29:55.680 ,7,1,0.,24.0,0.,24.0
1979-07-20 09:30:19.680 ,7,0,0.,24.0,0.,24.0
1979-07-20 09:30:43.680 ,6,1,0.,24.0,0.,24.0
1979-07-20 09:31:07.680 ,6,0,0.,24.0,0.,24.0
1979-07-20 09:31:31.680 ,5,1,0.,24.0,0.,24.0
1979-07-20 09:31:55.680 ,5,0,0.,24.0,0.,24.0
1979-07-20 09:32:19.680 ,4,1,0.,24.0,0.,24.0
1979-07-20 09:32:43.680 ,4,0,0.,24.0,0.,24.0
1979-07-20 09:33:07.680 ,3,1,0.,24.0,0.,24.0
1979-07-20 09:33:31.680 ,3,0,0.,24.0,0.,24.0
1979-07-20 09:33:55.680 ,2,1,0.,24.0,0.,24.0
1979-07-20 09:34:19.680 ,2,0,0.,24.0,0.,24.0
1979-07-20 09:34:43.680 ,1,1,0.,24.0,0.,24.0
1979-07-20 09:35:07.680 ,1,0,0.,24.0,0.,24.0
1979-07-20 09:35:31.680 ,0,1,0.,24.0,0.,24.0
1979-07-20 09:35:55.680 ,0,0,0.,24.0,0.,24.0
1979-07-20 09:36:19.680 ,0,1,0.,24.0,0.,24.0
1979-07-20 09:36:43.680 ,0,0,0.,24.0,0.,24.0
1979-07-20 09:37:07.680 ,1,1,0.,24.0,0.,24.0
1979-07-20 09:37:31.680 ,1,0,0.,24.0,0.,24.0
1979-07-20 09:37:55.680 ,2,1,0.,24.0,0.,24.0
1979-07-20 09:38:19.680 ,2,0,0.,24.0,0.,24.0
1979-07-20 09:38:43.680 ,3,1,0.,24.0,0.,24.0
1979-07-20 09:39:07.680 ,3,0,0.,24.0,0.,24.0
1979-07-20 09:39:31.680 ,4,1,0.,24.0,0.,24.0
1979-07-20 09:39:55.680 ,4,0,0.,24.0,0.,24.0
1979-07-20 09:40:19.680 ,5,1,0.,24.0,0.,24.0
1979-07-20 09:40:43.680 ,5,0,0.,24.0,0.,24.0
1979-07-20 09:41:07.680 ,6,1,0.,24.0,0.,24.0
1979-07-20 09:41:31.680 ,6,0,0.,24.0,0.,24.0
1979-07-20 09:41:55.680 ,7,1,0.,24.0,0.,24.0
1979-07-20 09:42:19.680 ,7,0,0.,24.0,0.,24.0
1979-07-20 09:42:43.680 ,7,1,0.,24.0,0.,24.0
1979-07-20 09:43:07.680 ,7,0,0.,24.0,0.,24.0
1979-07-20 09:43:31.680 ,6,1,0.,24.0,0.,24.0
1979-07-20 09:43:55.680 ,6,0,0.,24.0,0.,24.0
1979-07-20 09:44:19.680 ,5,1,0.,24.0,0.,24.0
1979-07-20 09:44:43.680 ,5,0,0.,24.0,0.,24.0
1979-07-20 09:45:07.680 ,4,1,0.,24.0,0.,24.0
1979-07-20 09:45:31.680 ,4,0,0.,24.0,0.,24.0
1979-07-20 09:45:55.680 ,3,1,0.,24.0,0.,24.0
1979-07-20 09:46:19.680 ,3,0,0.,24.0,0.,24.0
1979-07-20 09:46:43.680 ,2,1,0.,24.0,0.,24.0
1979-07-20 09:47:07.680 ,2,0,0.,24.0,0.,24.0
1979-07-20 09:47:31.680 ,1,1,0.,24.0,0.,24.0
1979-07-20 09:47:55.680 ,1,0,0.,24.0,0.,24.0
1979-07-20 09:48:19.680 ,0,1,0.,24.0,0.,24.0
1979-07-20 09:48:43.680 ,0,0,0.,24.0,0.,24.0
1979-07-20 09:49:07.680 ,0,1,0.,24.0,0.,24.0
1979-07-20 09:49:31.680 ,0,0,0.,24.0,0.,24.0
1979-07-20 09:49:55.680 ,1,1,1.,24.0,0.,24.0
1979-07-20 09:50:19.680 ,1,0,0.,24.0,0.,24.0
1979-07-20 09:50:43.680 ,0,0,0.,24.0,0.,24.0
1979-07-20 09:51:07.680 ,0,0,0.,24.0,0.,24.0
1979-07-20 09:51:31.680 ,3,1,0.,24.0,0.,24.0
1979-07-20 09:51:55.680 ,3,0,0.,24.0,0.,24.0
1979-07-20 09:52:19.680 ,4,1,0.,24.0,0.,24.0
1979-07-20 09:52:43.680 ,4,0,0.,24.0,0.,24.0
1979-07-20 09:53:07.680 ,5,1,0.,24.0,0.,24.0
1979-07-20 09:53:31.680 ,5,0,0.,24.0,0.,24.0
1979-07-20 09:53:55.680 ,6,1,0.,24.0,0.,24.0
1979-07-20 09:54:19.680 ,6,0,0.,24.0,0.,24.0
1979-07-20 09:55:31.680 ,0,0,0.,24.0,0.,24.0
1979-07-20 09:55:55.680 ,0,1,0.,24.0,0.,24.0
1979-07-20 09:56:19.680 ,4,1,0.,24.0,0.,24.0
1979-07-20 09:56:43.680 ,7,1,0.,24.0,0.,24.0
1979-07-20 09:57:07.680 ,3,1,0.,24.0,0.,24.0
1979-07-20 09:57:31.680 ,0,1,0.,24.0,0.,24.0
1979-07-20 09:57:55.680 ,0,0,0.,24.0,0.,24.0
1979-07-20 09:58:19.680 ,7,1,0.,24.0,0.,24.0
1979-07-20 09:58:43.680 ,0,0,,0,,0
1979-07-20 09:59:07.680 ,0,0,0.,24.0,0.,24.0
1979-07-20 09:59:31.680 ,4,1,0.,24.0,0.,24.0
1979-07-20 09:59:55.680 ,7,1,0.,24.0,0.,24.0
1979-07-20 10:00:19.680 ,3,1,0.,24.0,0.,24.0
1979-07-20 10:00:43.680 ,0,1,0.,24.0,0.,24.0
1979-07-20 10:01:07.680 ,4,1,0.,24.0,0.,24.0
1979-07-20 10:01:31.680 ,7,1,0.,24.0,0.,24.0
1979-07-20 10:01:55.680 ,3,1,0.,24.0,0.,24.0
1979-07-20 10:02:19.680 ,0,1,0.,24.0,0.,24.0
1979-07-20 10:02:43.680 ,4,1,0.,24.0,0.,24.0
1979-07-20 10:03:07.680 ,7,1,0.,24.0,0.,24.0
1979-07-20 10:03:31.680 ,3,1,0.,24.0,0.,24.0
1979-07-20 10:03:55.680 ,0,1,0.,24.0,0.,24.0
1979-07-20 10:04:19.680 ,4,1,0.,24.0,0.,24.0
1979-07-20 10:04:43.680 ,7,1,0.,24.0,0.,24.0
1979-07-20 10:05:07.680 ,3,1,0.,24.0,0.,24.0
1979-07-20 10:05:31.680 ,0,1,0.,24.0,0.,24.0
1979-07-20 10:05:55.680 ,0,0,0.,24.0,0.,24.0
1979-07-20 10:06:19.680 ,0,0,0.,24.0,0.,24.0
1979-07-20 10:06:43.680 ,5,1,0.,24.0,0.,24.0
1979-07-20 10:07:07.680 ,5,0,0.,24.0,0.,24.0
1979-07-20 10:07:31.680 ,4,1,0.,24.0,0.,24.0
1979-07-20 10:07:55.680 ,4,0,0.,24.0,0.,24.0
1979-07-20 10:08:19.680 ,3,1,0.,24.0,0.,24.0
1979-07-20 10:08:43.680 ,3,0,0.,24.0,0.,24.0
1979-07-20 10:09:07.680 ,2,1,0.,24.0,0.,24.0
1979-07-20 10:09:31.680 ,2,0,0.,24.0,0.,24.0
1979-07-20 10:09:55.680 ,1,1,0.,24.0,0.,24.0
1979-07-20 10:10:19.680 ,1,0,0.,24.0,0.,24.0
1979-07-20 10:10:43.680 ,0,1,0.,24.0,0.,24.0
1979-07-20 10:11:07.680 ,0,0,0.,24.0,0.,24.0
1979-07-20 10:11:31.680 ,0,1,0.,24.0,0.,24.0
1979-07-20 10:11:55.680 ,0,0,0.,24.0,0.,24.0
1979-07-20 10:12:19.680 ,1,1,0.,24.0,0.,24.0
1979-07-20 10:12:43.680 ,1,0,0.,24.0,0.,24.0
1979-07-20 10:13:07.680 ,2,1,0.,24.0,0.,24.0
1979-07-20 10:13:31.680 ,2,0,0.,24.0,0.,24.0
1979-07-20 10:13:55.680 ,3,1,0.,24.0,0.,24.0
1979-07-20 10:14:19.680 ,3,0,0.,24.0,0.,24.0
1979-07-20 10:14:43.680 ,4,1,0.,24.0,0.,24.0
1979-07-20 10:15:07.680 ,0,0,,0,,0
1979-07-20 10:15:31.680 ,5,1,0.,24.0,0.,24.0
1979-07-20 10:15:55.680 ,5,0,0.,24.0,0.,24.0
1979-07-20 10:16:19.680 ,6,1,0.,24.0,0.,24.0
1979-07-20 10:16:43.680 ,6,0,0.,24.0,0.,24.0
1979-07-20 10:17:07.680 ,7,1,0.,24.0,0.,24.0
1979-07-20 10:17:31.680 ,7,0,0.,24.0,0.,24.0
1979-07-20 10:17:55.680 ,7,1,0.,24.0,0.,24.0
1979-07-20 10:18:19.680 ,7,0,0.,24.0,0.,24.0
1979-07-20 10:18:43.680 ,6,1,0.,24.0,0.,24.0
1979-07-20 10:19:07.680 ,6,0,0.,24.0,0.,24.0
1979-07-20 10:19:31.680 ,5,1,0.,24.0,0.,24.0
1979-07-20 10:19:55.680 ,5,0,0.,24.0,0.,24.0
1979-07-20 10:20:19.680 ,4,1,0.,24.0,0.,24.0
1979-07-20 10:20:43.680 ,4,0,0.,24.0,0.,24.0
1979-07-20 10:21:07.680 ,3,1,0.,24.0,0.,24.0
1979-07-20 10:21:31.680 ,3,0,1.,24.0,0.,24.0
1979-07-20 10:21:55.680 ,2,1,0.,24.0,0.,24.0
1979-07-20 10:22:19.680 ,2,0,0.,24.0,0.,24.0
1979-07-20 10:22:43.680 ,1,1,0.,24.0,0.,24.0
1979-07-20 10:23:07.680 ,1,0,0.,24.0,0.,24.0
1979-07-20 10:23:31.680 ,0,1,0.,24.0,0.,24.0
1979-07-20 10:23:55.680 ,0,0,0.,24.0,0.,24.0
1979-07-20 10:24:19.680 ,0,1,0.,24.0,0.,24.0
1979-07-20 10:24:43.680 ,0,0,0.,24.0,0.,24.0
1979-07-20 10:25:07.680 ,1,1,0.,24.0,0.,24.0
1979-07-20 10:25:31.680 ,1,0,0.,24.0,0.,24.0
1979-07-20 10:25:55.680 ,2,1,0.,24.0,0.,24.0
1979-07-20 10:26:19.680 ,2,0,0.,24.0,0.,24.0
1979-07-20 10:26:43.680 ,3,1,0.,24.0,0.,24.0
1979-07-20 10:27:07.680 ,3,0,0.,24.0,0.,24.0
1979-07-20 10:27:31.680 ,4,1,0.,24.0,0.,24.0
1979-07-20 10:27:55.680 ,4,0,0.,24.0,0.,24.0
1979-07-20 10:28:19.680 ,5,1,0.,24.0,0.,24.0
1979-07-20 10:28:43.680 ,5,0,0.,24.0,0.,24.0
1979-07-20 10:29:07.680 ,6,1,0.,24.0,0.,24.0
1979-07-20 10:29:31.680 ,6,0,0.,24.0,0.,24.0
1979-07-20 10:29:55.680 ,7,1,0.,24.0,0.,24.0
1979-07-20 10:30:19.680 ,7,0,0.,24.0,0.,24.0
1979-07-20 10:30:43.680 ,7,1,0.,24.0,0.,24.0
1979-07-20 10:31:07.680 ,7,0,0.,24.0,0.,24.0
1979-07-20 10:31:31.680 ,6,1,0.,24.0,0.,24.0
1979-07-20 10:31:55.680 ,6,0,0.,24.0,0.,24.0
1979-07-20 10:32:19.680 ,5,1,0.,24.0,0.,24.0
1979-07-20 10:32:43.680 ,5,0,0.,24.0,0.,24.0
1979-07-20 10:33:07.680 ,4,1,0.,24.0,0.,24.0
1979-07-20 10:33:31.680 ,4,0,0.,24.0,0.,24.0
1979-07-20 10:33:55.680 ,3,1,0.,24.0,0.,24.0
1979-07-20 10:34:19.680 ,3,0,0.,24.0,0.,24.0
1979-07-20 10:34:43.680 ,2,1,0.,24.0,0.,24.0
1979-07-20 10:35:07.680 ,2,0,0.,24.0,0.,24.0
1979-07-20 10:35:31.680 ,1,1,0.,24.0,0.,24.0
1979-07-20 10:35:55.680 ,1,0,0.,24.0,0.,24.0
1979-07-20 10:36:19.680 ,0,1,0.,24.0,0.,24.0
1979-07-20 10:36:43.680 ,0,0,0.,24.0,0.,24.0
1979-07-20 10:37:07.680 ,0,1,0.,24.0,0.,24.0
1979-07-20 10:37:31.680 ,0,0,0.,24.0,0.,24.0
1979-07-20 10:37:55.680 ,1,1,0.,24.0,0.,24.0
1979-07-20 10:38:19.680 ,1,0,0.,24.0,0.,24.0
1979-07-20 10:38:43.680 ,2,1,0.,24.0,0.,24.0
1979-07-20 10:39:07.680 ,2,0,0.,24.0,0.,24.0
1979-07-20 10:39:31.680 ,3,1,0.,24.0,0.,24.0
1979-07-20 10:39:55.680 ,3,0,0.,24.0,0.,24.0
1979-07-20 10:40:19.680 ,4,1,0.,24.0,0.,24.0
1979-07-20 10:40:43.680 ,4,0,0.,24.0,0.,24.0
1979-07-20 10:41:07.680 ,5,1,0.,24.0,0.,24.0
1979-07-20 10:41:31.680 ,5,0,0.,24.0,0.,24.0
1979-07-20 10:41:55.680 ,6,1,0.,24.0,0.,24.0
1979-07-20 10:42:19.680 ,6,0,0.,24.0,0.,24.0
1979-07-20 10:42:43.680 ,7,0,0.,24.0,0.,24.0
1979-07-20 10:43:07.680 ,7,0,0.,24.0,0.,24.0
1979-07-20 10:43:31.680 ,3,1,0.,24.0,0.,24.0
1979-07-20 10:43:55.680 ,0,1,0.,24.0,0.,24.0
1979-07-20 10:44:19.680 ,4,1,0.,24.0,0.,24.0
1979-07-20 10:44:43.680 ,7,1,0.,24.0,0.,24.0
1979-07-20 10:45:07.680 ,3,1,0.,24.0,0.,24.0
1979-07-20 10:45:31.680 ,0,1,0.,24.0,0.,24.0
1979-07-20 10:45:55.680 ,4,1,0.,24.0,0.,24.0
1979-07-20 10:46:19.680 ,7,1,0.,24.0,0.,24.0
1979-07-20 10:46:43.680 ,3,1,0.,24.0,0.,24.0
1979-07-20 10:47:07.680 ,0,1,0.,24.0,0.,24.0
1979-07-20 10:47:31.680 ,4,1,0.,24.0,0.,24.0
1979-07-20 10:47:55.680 ,7,1,0.,24.0,0.,24.0
1979-07-20 10:48:19.680 ,3,1,0.,24.0,0.,24.0
1979-07-20 10:48:43.680 ,0,1,0.,24.0,0.,24.0
1979-07-20 10:49:07.680 ,4,1,0.,24.0,0.,24.0
1979-07-20 10:49:31.680 ,7,1,0.,24.0,0.,24.0
1979-07-20 10:49:55.680 ,3,1,0.,24.0,0.,24.0
1979-07-20 10:50:19.680 ,0,1,0.,24.0,0.,24.0
1979-07-20 10:50:43.680 ,4,1,0.,24.0,0.,24.0
1979-07-20 10:51:07.680 ,7,1,0.,24.0,0.,24.0
1979-07-20 10:51:31.680 ,3,1,0.,24.0,0.,24.0
1979-07-20 10:51:55.680 ,0,1,0.,24.0,0.,24.0
1979-07-20 10:52:19.680 ,4,1,0.,24.0,0.,24.0
1979-07-20 10:52:43.680 ,7,1,0.,24.0,0.,24.0
1979-07-20 10:53:07.680 ,3,1,0.,24.0,0.,24.0
1979-07-20 10:53:31.680 ,0,1,0.,24.0,0.,24.0
1979-07-20 10:53:55.680 ,0,0,0.,24.0,0.,24.0
1979-07-20 10:54:19.680 ,0,0,0.,24.0,0.,24.0
1979-07-20 10:54:43.680 ,5,1,0.,24.0,0.,24.0
1979-07-20 10:55:07.680 ,5,0,0.,24.0,0.,24.0
1979-07-20 10:55:31.680 ,4,1,0.,24.0,0.,24.0
1979-07-20 10:55:55.680 ,4,0,0.,24.0,0.,24.0
1979-07-20 10:56:19.680 ,3,1,0.,24.0,0.,24.0
1979-07-20 10:56:43.680 ,3,0,0.,24.0,0.,24.0
1979-07-20 10:57:07.680 ,2,1,0.,24.0,0.,24.0
1979-07-20 10:57:31.680 ,2,0,0.,24.0,0.,24.0
1979-07-20 10:57:55.680 ,1,1,0.,24.0,0.,24.0
1979-07-20 10:58:19.680 ,1,0,0.,24.0,0.,24.0
1979-07-20 10:58:43.680 ,0,1,0.,24.0,0.,24.0
1979-07-20 10:59:07.680 ,0,0,0.,24.0,0.,24.0
1979-07-20 10:59:31.680 ,0,1,0.,24.0,0.,24.0
1979-07-20 10:59:55.680 ,0,0,0.,24.0,0.,24.0
1979-07-20 11:00:19.680 ,1,1,0.,24.0,0.,24.0
1979-07-20 11:00:43.680 ,1,0,0.,24.0,0.,24.0
1979-07-20 11:01:07.680 ,2,1,0.,24.0,0.,24.0
1979-07-20 11:01:31.680 ,2,0,0.,24.0,0.,24.0
1979-07-20 11:01:55.680 ,3,1,0.,24.0,0.,24.0
1979-07-20 11:02:19.680 ,3,0,0.,24.0,0.,24.0
1979-07-20 11:02:43.680 ,4,1,0.,24.0,0.,24.0
1979-07-20 11:03:07.680 ,4,0,0.,24.0,0.,24.0
1979-07-20 11:03:31.680 ,5,1,0.,24.0,0.,24.0
1979-07-20 11:03:55.680 ,5,0,0.,24.0,0.,24.0
1979-07-20 11:04:19.680 ,6,1,0.,24.0,0.,24.0
1979-07-20 11:04:43.680 ,6,0,0.,24.0,0.,24.0
1979-07-20 11:05:07.680 ,7,1,0.,24.0,0.,24.0
1979-07-20 11:05:31.680 ,7,0,0.,24.0,0.,24.0
1979-07-20 11:05:55.680 ,7,1,0.,24.0,0.,24.0
1979-07-20 11:06:19.680 ,7,0,0.,24.0,0.,24.0
1979-07-20 11:06:43.680 ,6,1,0.,24.0,0.,24.0
1979-07-20 11:07:07.680 ,6,0,0.,24.0,0.,24.0
1979-07-20 11:07:31.680 ,5,1,0.,24.0,0.,24.0
1979-07-20 11:07:55.680 ,5,0,0.,24.0,0.,24.0
1979-07-20 11:08:19.680 ,4,1,0.,24.0,0.,24.0
1979-07-20 11:08:43.680 ,4,0,0.,24.0,0.,24.0
1979-07-20 11:09:07.680 ,3,1,0.,24.0,0.,24.0
1979-07-20 11:09:31.680 ,3,0,0.,24.0,0.,24.0
1979-07-20 11:09:55.680 ,2,1,0.,24.0,0.,24.0
1979-07-20 11:10:19.680 ,2,0,0.,24.0,0.,24.0
1979-07-20 11:10:43.680 ,1,1,0.,24.0,0.,24.0
1979-07-20 11:11:07.680 ,1,0,0.,24.0,0.,24.0
1979-07-20 11:11:31.680 ,0,1,0.,24.0,0.,24.0
1979-07-20 11:11:55.680 ,0,0,0.,24.0,0.,24.0
1979-07-20 11:12:19.680 ,0,1,0.,24.0,0.,24.0
1979-07-20 11:12:43.680 ,0,0,0.,24.0,0.,24.0
1979-07-20 11:13:07.680 ,1,1,0.,24.0,0.,24.0
1979-07-20 11:13:31.680 ,1,0,0.,24.0,0.,24.0
1979-07-20 11:13:55.680 ,2,1,0.,24.0,0.,24.0
1979-07-20 11:14:19.680 ,2,0,0.,24.0,0.,24.0
1979-07-20 11:14:43.680 ,3,1,0.,24.0,0.,24.0
1979-07-20 11:15:07.680 ,3,0,0.,24.0,0.,24.0
1979-07-20 11:15:31.680 ,4,1,0.,24.0,0.,24.0
1979-07-20 11:15:55.680 ,4,0,0.,24.0,0.,24.0
1979-07-20 11:16:19.680 ,5,1,0.,24.0,0.,24.0
1979-07-20 11:16:43.680 ,5,0,0.,24.0,0.,24.0
1979-07-20 11:17:07.680 ,6,1,0.,24.0,0.,24.0
1979-07-20 11:17:31.680 ,6,0,0.,24.0,0.,24.0
1979-07-20 11:17:55.680 ,7,1,0.,24.0,0.,24.0
1979-07-20 11:18:19.680 ,7,0,0.,24.0,0.,24.0
1979-07-20 11:18:43.680 ,7,1,0.,24.0,0.,24.0
1979-07-20 11:19:07.680 ,7,0,0.,24.0,0.,24.0
1979-07-20 11:19:31.680 ,6,1,0.,24.0,0.,24.0
1979-07-20 11:19:55.680 ,6,0,0.,24.0,0.,24.0
1979-07-20 11:20:19.680 ,5,1,0.,24.0,0.,24.0
1979-07-20 11:20:43.680 ,5,0,0.,24.0,0.,24.0
1979-07-20 11:21:07.680 ,4,1,0.,24.0,0.,24.0
1979-07-20 11:21:31.680 ,4,0,0.,24.0,0.,24.0
1979-07-20 11:21:55.680 ,3,1,0.,24.0,0.,24.0
1979-07-20 11:22:19.680 ,3,0,0.,24.0,0.,24.0
1979-07-20 11:22:43.680 ,2,1,0.,24.0,0.,24.0
1979-07-20 11:23:07.680 ,2,0,0.,24.0,0.,24.0
1979-07-20 11:23:31.680 ,1,1,0.,24.0,0.,24.0
1979-07-20 11:23:55.680 ,1,0,0.,24.0,0.,24.0
1979-07-20 11:24:19.680 ,0,1,0.,24.0,0.,24.0
1979-07-20 11:24:43.680 ,0,0,0.,24.0,0.,24.0
1979-07-20 11:25:07.680 ,0,1,0.,24.0,0.,24.0
1979-07-20 11:25:31.680 ,0,0,0.,24.0,0.,24.0
1979-07-20 11:25:55.680 ,1,1,0.,24.0,0.,24.0
1979-07-20 11:26:19.680 ,1,0,0.,24.0,0.,24.0
1979-07-20 11:26:43.680 ,2,1,0.,24.0,0.,24.0
1979-07-20 11:27:07.680 ,2,0,0.,24.0,0.,24.0
1979-07-20 11:27:31.680 ,3,1,0.,24.0,0.,24.0
1979-07-20 11:27:55.680 ,3,0,0.,24.0,0.,24.0
1979-07-20 11:28:19.680 ,4,1,0.,24.0,0.,24.0
1979-07-20 11:28:43.680 ,4,0,0.,24.0,0.,24.0
1979-07-20 11:29:07.680 ,5,1,0.,24.0,0.,24.0
1979-07-20 11:29:31.680 ,5,0,0.,24.0,0.,24.0
1979-07-20 11:29:55.680 ,6,1,0.,24.0,0.,24.0
1979-07-20 11:30:19.680 ,6,0,0.,24.0,0.,24.0
1979-07-20 11:30:43.680 ,7,0,0.,24.0,0.,24.0
1979-07-20 11:31:07.680 ,7,0,0.,24.0,0.,24.0
1979-07-20 11:31:31.680 ,3,1,0.,24.0,0.,24.0
1979-07-20 11:31:55.680 ,0,1,0.,24.0,0.,24.0
1979-07-20 11:32:19.680 ,4,1,0.,24.0,0.,24.0
1979-07-20 11:32:43.680 ,7,1,0.,24.0,0.,24.0
1979-07-20 11:33:07.680 ,3,1,0.,24.0,0.,24.0
1979-07-20 11:33:31.680 ,0,1,0.,24.0,0.,24.0
1979-07-20 11:33:55.680 ,4,1,0.,24.0,0.,24.0
1979-07-20 11:34:19.680 ,7,1,0.,24.0,0.,24.0
1979-07-20 11:34:43.680 ,3,1,0.,24.0,0.,24.0
1979-07-20 11:35:07.680 ,0,1,0.,24.0,0.,24.0
1979-07-20 11:35:31.680 ,4,1,0.,24.0,0.,24.0
1979-07-20 11:35:55.680 ,7,1,0.,24.0,0.,24.0
1979-07-20 11:36:19.680 ,3,1,0.,24.0,0.,24.0
1979-07-20 11:36:43.680 ,0,1,0.,24.0,0.,24.0
1979-07-20 11:37:07.680 ,4,1,0.,24.0,0.,24.0
1979-07-20 11:37:31.680 ,7,1,0.,24.0,0.,24.0
1979-07-20 11:37:55.680 ,3,1,0.,24.0,0.,24.0
1979-07-20 11:38:19.680 ,0,1,0.,24.0,0.,24.0
1979-07-20 11:38:43.680 ,4,1,0.,24.0,0.,24.0
1979-07-20 11:39:07.680 ,7,1,0.,24.0,0.,24.0
1979-07-20 11:39:31.680 ,3,1,0.,24.0,0.,24.0
1979-07-20 11:39:55.680 ,0,1,0.,24.0,0.,24.0
1979-07-20 11:40:19.680 ,4,1,0.,24.0,0.,24.0
1979-07-20 11:40:43.680 ,7,1,0.,24.0,0.,24.0
1979-07-20 11:41:07.680 ,3,1,0.,24.0,0.,24.0
1979-07-20 11:41:31.680 ,0,1,0.,24.0,0.,24.0
1979-07-20 11:41:55.680 ,0,0,0.,24.0,0.,24.0
1979-07-20 11:42:19.680 ,0,0,0.,24.0,0.,24.0
1979-07-20 11:42:43.680 ,5,1,0.,24.0,0.,24.0
1979-07-20 11:43:07.680 ,5,0,0.,24.0,0.,24.0
1979-07-20 11:43:31.680 ,4,1,0.,24.0,0.,24.0
1979-07-20 11:43:55.680 ,4,0,0.,24.0,0.,24.0
1979-07-20 11:44:19.680 ,3,1,0.,24.0,0.,24.0
1979-07-20 11:44:43.680 ,3,0,0.,24.0,0.,24.0
1979-07-20 11:45:07.680 ,2,1,0.,24.0,0.,24.0
1979-07-20 11:45:31.680 ,2,0,0.,24.0,0.,24.0
1979-07-20 11:45:55.680 ,1,1,0.,24.0,0.,24.0
1979-07-20 11:46:19.680 ,1,0,0.,24.0,0.,24.0
1979-07-20 11:46:43.680 ,0,1,0.,24.0,0.,24.0
1979-07-20 11:47:07.680 ,0,0,0.,24.0,0.,24.0
1979-07-20 11:47:31.680 ,0,1,0.,24.0,0.,24.0
1979-07-20 11:47:55.680 ,0,0,0.,24.0,0.,24.0
1979-07-20 11:48:19.680 ,1,1,0.,24.0,0.,24.0
1979-07-20 11:48:43.680 ,1,0,0.,24.0,0.,24.0
1979-07-20 11:49:07.680 ,2,1,0.,24.0,0.,24.0
1979-07-20 11:49:31.680 ,2,0,0.,24.0,0.,24.0
1979-07-20 11:49:55.680 ,3,1,0.,24.0,0.,24.0
1979-07-20 11:50:19.680 ,3,0,0.,24.0,0.,24.0
1979-07-20 11:50:43.680 ,4,1,0.,24.0,0.,24.0
1979-07-20 11:51:07.680 ,4,0,0.,24.0,0.,24.0
1979-07-20 11:51:31.680 ,5,1,0.,24.0,0.,24.0
1979-07-20 11:51:55.680 ,5,0,0.,24.0,0.,24.0
1979-07-20 11:52:19.680 ,6,1,0.,24.0,0.,24.0
1979-07-20 11:52:43.680 ,6,0,0.,24.0,0.,24.0
1979-07-20 11:53:07.680 ,7,1,0.,24.0,0.,24.0
1979-07-20 11:53:31.680 ,7,0,0.,24.0,0.,24.0
1979-07-20 11:53:55.680 ,7,1,0.,24.0,0.,24.0
1979-07-20 11:54:19.680 ,7,0,0.,24.0,0.,24.0
1979-07-20 11:54:43.680 ,6,1,0.,24.0,0.,24.0
1979-07-20 11:55:07.680 ,6,0,0.,24.0,0.,24.0
1979-07-20 11:55:31.680 ,5,1,0.,24.0,0.,24.0
1979-07-20 11:55:55.680 ,5,0,0.,24.0,0.,24.0
1979-07-20 11:56:19.680 ,4,1,0.,24.0,0.,24.0
1979-07-20 11:56:43.680 ,4,0,0.,24.0,0.,24.0
1979-07-20 11:57:07.680 ,3,1,0.,24.0,0.,24.0
1979-07-20 11:57:31.680 ,3,0,0.,24.0,0.,24.0
1979-07-20 11:57:55.680 ,2,1,0.,24.0,0.,24.0
1979-07-20 11:58:19.680 ,2,0,0.,24.0,0.,24.0
1979-07-20 11:58:43.680 ,1,1,0.,24.0,0.,24.0
1979-07-20 11:59:07.680 ,1,0,0.,24.0,0.,24.0
1979-07-20 11:59:31.680 ,0,1,0.,24.0,0.,24.0
1979-07-20 11:59:55.680 ,0,0,0.,24.0,0.,24.0
1979-07-20 12:00:19.680 ,0,1,0.,24.0,0.,24.0
